Tracking 23611 objects as of 18-Sep-2021
HD Live streaming from Space Station
objects crossing your sky now
Track INSPIRATION-4

CHINASAT 5A (CHINASTAR1)

Track CHINASAT 5A (CHINASTAR1) now!
CHINASAT 5A (CHINASTAR1) is classified as:


NORAD ID: 25354
Int'l Code: 1998-033A
Perigee: 36,132.8 km
Apogee: 36,179.6 km
Inclination: 4.7 °
Period: 1,454.7 minutes
Semi major axis: 42527 km
RCS: 0.003 m2 (small)
Launch date: May 30, 1998
Source: People's Republic of China (PRC)
Launch site: Xichang Space Center, China (XSC)

24 C-band, 24 Ku-band; voice and video communications throughout China and neighboring countries.
aabbcc
Your satellite tracking list
Your tracking list is empty




NASA's NSSDC Master Catalog

Two Line Element Set (TLE):
1 25354U 98033A   21261.73213019  .00000003  00000-0  00000+0 0  9992
2 25354   4.7290  77.4752 0005501  66.0244 155.8502  0.98992593 89713
Source of the keplerian elements: AFSPC